sat.trackr.live / text

‹ back to catalog

ZHEDA PIXING 1C

NORAD 37167 · 2010-047C

PAYLOAD ACTIVE UNKNOWN

§ Identity

Operator
Country
PRC
Launch date
2010-09-22
Launch site
JSC
Launch vehicle
Mass (kg)
RCS (m²)
0.15

External: N2YO · Heavens-Above · Gunter

§ Orbital elements

Epoch: 2026-05-25T04:55:12.000864Z

Period
96.59 min
Inclination
97.9766°
Eccentricity
0.0019440
Mean motion
14.90856552 rev/d
Perigee alt
581.7 km
Apogee alt
608.8 km
Semi-major
6,973.4 km
B*
1.2549e-4
RAAN
126.5726°
Arg perigee
7.6508°
Mean anomaly
352.5002°
Rev number
84,700

§ Raw data

ZHEDA PIXING 1C1 37167U 10047C   26145.20500001  .00001181  00000+0  12549-3 0  99962 37167  97.9766 126.5726 0019440   7.6508 352.5002 14.90856552847004

JSON: /api/v1/satellites/37167 · /tle

For live sub-satellite position, see the globe view (requires WebGL).

§ Visibility from observer

Set your observer location to see the next 7 days of passes ≥ 10°. The values pass through the URL so the page stays shareable.

No JS? Fill the form by hand. The geolocation button needs JavaScript.

§ Radio — SatNOGS DB

ModeDescriptionDownlinkUplink
FM S-band telemetry 2.285 GHz

1 transmitter · refreshed weekly from db.satnogs.org